Regional Weather Roundup
Issued by NWS Newport/Morehead, NC

Current Version | Previous Version | Text Only | Print | Product List | Glossary On
Versions: 1 2 3 4 5 6 7 8 9 10 11 12 13 14 15 16 17 18 19 20 21 22 23 24 25 26 27 28 29 30 31 32 33 34 35 36 37 38 39 40 41 42 43 44 45 46 47 48 49 50
520
ASUS42 KMHX 290725
RWRMHX
WEATHER ROUNDUP FOR EASTERN NORTH CAROLINA
NATIONAL WEATHER SERVICE NEWPORT/MOREHEAD CITY NC
300 AM EDT WED MAR 29 2017

NOTE: "FAIR" INDICATES FEW OR NO CLOUDS BELOW 12,000 FEET
WITH NO SIGNIFICANT WEATHER AND/OR OBSTRUCTIONS TO VISIBILITY

NCZ015>017-031-032-045>047-102-103-290800-
NORTH COAST

CITY           SKY/WX    TMP DP  RH WIND       PRES   REMARKS
EDENTON        PTCLDY    58  57  97 CALM      29.93R
ELIZABETH CITY PTCLDY    59  57  93 N7        29.92R
KITTY HAWK     NOT AVBL
MANTEO         PTCLDY    58  58  97 N5        29.92R

$$

NCZ045>047-081-094-103-104-290800-
CENTRAL COAST

CITY           SKY/WX    TMP DP  RH WIND       PRES   REMARKS
FRISCO         CLEAR     63  60  90 NW5       29.89F FOG

$$

NCZ095-097-098-100-101-290800-
SOUTHERN COAST

CITY           SKY/WX    TMP DP  RH WIND       PRES   REMARKS
BEAUFORT       CLEAR     62  62 100 NW6       29.91S
CEDAR ISLAND   NOT AVBL
JACKSONVILLE   CLOUDY    58  58 100 CALM      29.92S VSB 1/2
PINEY ISLAND   FOG      N/A N/A N/A W7        29.91S VSB 1/2
WILMINGTON     MOCLDY    61  60  97 CALM      29.92F


$$

NCZ011>013-027>030-043-044-078>080-089-090>093-098-290800-
COASTAL PLAIN

CITY           SKY/WX    TMP DP  RH WIND       PRES   REMARKS
AHOSKIE          N/A     51  50  99 CALM      29.94R FOG
CLINTON        CLEAR     62  60  94 CALM      29.95S
ELIZABETHTOWN  CLEAR     63  59  87 CALM      29.94F
GOLDSBORO      PTCLDY    57  57 100 CALM      29.92S
GREENVILLE     FOG       54  54 100 CALM      29.95S VSB 1
HAVELOCK       NOT AVBL
KENANSVILLE    MOCLDY    59  59 100 NW3       29.94S FOG
KINSTON        PTCLDY    58  58 100 W3        29.94S
NEW BERN       FOG       53  53 100 CALM      29.93R VSB 1/4
RICHLANDS      MOCLDY    54  54 100 CALM      29.93S FOG
ROCKY MOUNT    CLEAR     60  53  77 NW6       29.93F
WASHINGTON     FOG       55  55 100 CALM      29.93S VSB 1/4
WHITEVILLE     CLEAR     64  55  74 CALM      29.93F

$$

AMZ130-135-150-152-154-156-158-170-250-252-270-ANZ085-086-088-633-658-670-290800-
MARINE OBSERVATIONS

STATION/POSITION TIME  TEMP    WIND        PRES    WAVE   SWELL
                       AIR SEA DIR/SP/G            HT/PER HT/PER
                 (UTC) (F)     (DEG/KT/KT) (MB)    (FT/S) (FT/S)
CHESAPEAKE LIGHT NOT AVBL
64 E VA BEACH    0650   52 49  360/ 16/ 19 1012.1    4/ 8   3/ 8
DUCK             0700   58 47  330/  7/  8 1012.5
2 E DUCK         0700      49                N/A     2/11   2/11
OREGON INLET     0700   60 60  300/  7/ 10 1012.5
13E OREGON INLT  0648      53                N/A     3/10   3/10
HATTERAS CG      0700   62 63  320/  9/ 10 1011.9
DIAMOND BUOY     0650   68 74  320/ 14/ 16 1012.2    6/10   5/10
CAPE LOOKOUT     0700   65     310/  5/  6 1012.4
BEAUFORT LAB     0700   62 62   10/  3/  3 1011.9
30 SE NEW RVR IN 0708   63     330/  6/ 12 1012.8
30 SE NEW RVR IN 0713      64                N/A     5/10   2/11
27 SE WRIGHTSVLE 0708   65 69  330/ 10/ 14 1012.5
5 SE WRIGHTSVLE  0608   60 58  310/  2/  6 1013.0
225 S CAPE HAT   0650   71 72  230/ 14/ 17 1014.1    5/10   5/10
41 SE CHARLESTON 0650   69 71  250/ 17/ 21 1013.2    6/10   5/10

$$




USA.gov is the U.S. government's official web portal to all federal, state and local government web resources and services.